TimeMDT,TemperatureF,Dew PointF,Humidity,Sea Level PressureIn,VisibilityMPH,Wind Direction,Wind SpeedMPH,Gust SpeedMPH,PrecipitationIn,Events,Conditions,WindDirDegrees,DateUTC
12:52 AM,44.1,42.1,93,30.15,-9999.0,Calm,Calm,-,N/A,,Unknown,0,2012-10-17 06:52:00
1:52 AM,44.1,41.0,89,30.18,-9999.0,Calm,Calm,-,0.02,,Unknown,0,2012-10-17 07:52:00
2:52 AM,44.1,42.1,93,30.20,-9999.0,Calm,Calm,-,N/A,,Unknown,0,2012-10-17 08:52:00
3:52 AM,44.1,41.0,89,30.23,-9999.0,Calm,Calm,-,N/A,,Unknown,0,2012-10-17 09:52:00
4:52 AM,45.0,42.1,90,30.24,-9999.0,Calm,Calm,-,0.02,,Unknown,0,2012-10-17 10:52:00
5:52 AM,44.1,42.1,93,30.24,-9999.0,Calm,Calm,-,N/A,,Unknown,0,2012-10-17 11:52:00
6:52 AM,44.1,42.1,93,30.25,-9999.0,Calm,Calm,-,N/A,,Unknown,0,2012-10-17 12:52:00
7:52 AM,44.1,42.1,93,30.27,-9999.0,Calm,Calm,-,N/A,,Unknown,0,2012-10-17 13:52:00
8:52 AM,44.1,42.1,93,30.29,-9999.0,Calm,Calm,-,N/A,,Unknown,0,2012-10-17 14:52:00
9:52 AM,45.0,42.1,90,30.31,-9999.0,Calm,Calm,-,N/A,,Unknown,0,2012-10-17 15:52:00
10:52 AM,46.9,42.1,83,30.32,-9999.0,Calm,Calm,-,N/A,,Unknown,0,2012-10-17 16:52:00
11:52 AM,48.9,41.0,74,30.32,-9999.0,Calm,Calm,-,N/A,,Unknown,0,2012-10-17 17:52:00
12:52 PM,51.1,42.1,71,30.31,-9999.0,Calm,Calm,-,N/A,,Unknown,0,2012-10-17 18:52:00
1:52 PM,52.0,42.1,69,30.31,-9999.0,SE,3.5,-,N/A,,Unknown,130,2012-10-17 19:52:00
2:52 PM,55.9,39.9,55,30.27,-9999.0,Calm,Calm,-,N/A,,Unknown,0,2012-10-17 20:52:00
3:52 PM,62.1,41.0,46,30.24,-9999.0,Calm,Calm,-,N/A,,Unknown,0,2012-10-17 21:52:00
4:52 PM,52.0,39.9,63,30.27,-9999.0,Calm,Calm,-,N/A,,Unknown,0,2012-10-17 22:52:00
5:52 PM,48.9,39.9,71,30.27,-9999.0,Calm,Calm,-,N/A,,Unknown,0,2012-10-17 23:52:00
6:52 PM,46.0,41.0,83,30.30,-9999.0,Calm,Calm,-,N/A,,Unknown,0,2012-10-18 00:52:00
7:52 PM,43.0,39.0,86,30.33,-9999.0,Calm,Calm,-,N/A,,Unknown,0,2012-10-18 01:52:00
8:52 PM,41.0,37.9,89,30.36,-9999.0,Calm,Calm,-,N/A,,Unknown,0,2012-10-18 02:52:00
9:52 PM,39.9,37.0,89,30.38,-9999.0,Calm,Calm,-,N/A,,Unknown,0,2012-10-18 03:52:00
10:52 PM,39.9,37.0,89,30.39,-9999.0,Calm,Calm,-,N/A,,Unknown,0,2012-10-18 04:52:00
11:52 PM,39.9,37.0,89,30.38,-9999.0,Calm,Calm,-,N/A,,Unknown,0,2012-10-18 05:52:00